Content
SEND FEEDBACK

Daily
Averages
Monthly
Summary
United States of America

NEW YORK - CENTRAL PARK, NEW YORK


Home > North America > United States > New York
Elevation: 4 meters     Latitude: 40 47N     Longitude: 073 58W

WEATHER
 
SELECT A DAY
Number of Records: 147,926;   Date Range: 11/1/95 - 7/7/14
 
SHARE

PRINT THIS DATA

[ ← Previous Day ]
WEATHER ALMANAC - 12 FEBRUARY, 2014
[ Next Day → ]
[ °F ]   °C
Weather ElementAverageHighLow
Temperature-6.4 °C-3.9 °C (11:51 pm)-10.6 °C (6:51 am)
Dewpoint-14.4 °C-8.9 °C (11:51 pm)-18.9 °C (10:51 am)
Humidity54.1 %69 % (11:51 pm)38 % (10:51 am)
Barometer1031.5 hPa1035.2 hPa (8:51 am)1026.1 hPa (11:51 pm)
Wind Speed9.2 km/h16.7 km/h (6:51 am)
Wind Gust25.9 km/h (6:51 am)
Weather ElementAverage
Visibility16.1 km
Wind DirectionNNE (35 °)

Weather ElementTotal
Precipitation---
Heating Degree Days25.6 (Base 18.3)
Averaged from 26 records on 12 February, 2014
WEATHER CONDITIONS BREAKOUT
WIND DIRECTION BREAKOUT
WEATHER BY HOUR - 12 FEBRUARY, 2014
[ °F ]   °C
Local TimeTemperatureDewpointHumidityBarometerVisibilityWind DirectionWind SpeedGust SpeedPrecipitationEventsConditions
1:51 AM-8.9 °C-16.7 °C54 %1032.2 hPa16.1 kmVariable11.1 km/hClear
2:51 AM-8.9 °C-16.7 °C54 %1032.5 hPa16.1 kmNE (40°)13 km/hClear
3:51 AM-9.4 °C-16.7 °C56 %1032.8 hPa16.1 kmVariable7.4 km/hClear
4:51 AM-10 °C-16.7 °C59 %1033.2 hPa16.1 kmVariable7.4 km/hClear
5:51 AM-10 °C-16.7 °C59 %1033.2 hPa16.1 kmNE (40°)7.4 km/hClear
6:51 AM-10.6 °C-18.3 °C54 %1033.5 hPa16.1 kmNE (40°)16.7 km/h25.9 km/hClear
7:51 AM-10 °C-18.3 °C52 %1034.9 hPa16.1 kmNE (50°)9.3 km/hClear
8:51 AM-8.9 °C-17.8 °C49 %1035.2 hPa16.1 kmVariable11.1 km/hClear
9:51 AM-7.8 °C-17.8 °C45 %1034.2 hPa16.1 kmNE (50°)11.1 km/hClear
10:51 AM-6.7 °C-18.9 °C38 %1034.5 hPa16.1 kmVariable7.4 km/hClear
11:51 AM-5.6 °C-17.2 °C40 %1034.5 hPa16.1 kmNE (50°)7.4 km/hClear
12:51 PM-5 °C-15 °C46 %1032.5 hPa16.1 kmENE (60°)11.1 km/hClear
1:51 PM-5 °C-15 °C46 %1032.5 hPa16.1 kmSE (130°)9.3 km/hClear
2:51 PM-5 °C-15.6 °C44 %1032.2 hPa16.1 kmENE (70°)14.8 km/hClear
3:51 PM-4.4 °C-15 °C44 %1031.5 hPa16.1 kmENE (70°)9.3 km/hClear
4:51 PM-4.4 °C-14.4 °C46 %1032.2 hPa16.1 kmVariable5.6 km/hClear
5:51 PM-5.6 °C-12.8 °C58 %1030.8 hPa16.1 kmVariable9.3 km/hClear
6:51 PM-5 °C-12.8 °C55 %1030.5 hPa16.1 kmVariable7.4 km/hClear
7:51 PM-5 °C-11.1 °C63 %1029.5 hPa16.1 kmVariable7.4 km/hClear
8:14 PM-5 °C-11.7 °C60 %1030.1 hPa16.1 kmEast (90°)7.4 km/hMostly Cloudy
8:51 PM-4.4 °C-10.6 °C62 %1029.5 hPa16.1 kmENE (60°)9.3 km/hOvercast
9:51 PM-4.4 °C-10.6 °C62 %1028.1 hPa16.1 kmVariable5.6 km/hOvercast
10:14 PM-4.4 °C-10 °C65 %1028.1 hPa16.1 kmENE (60°)5.6 km/hOvercast
10:40 PM-4.4 °C-10.6 °C62 %1027.8 hPa16.1 kmENE (60°)7.4 km/hOvercast
10:51 PM-4.4 °C-10 °C65 %1026.8 hPa16.1 kmVariable9.3 km/hOvercast
11:51 PM-3.9 °C-8.9 °C69 %1026.1 hPa16.1 kmNE (40°)9.3 km/hOvercast
Hourly data recorded from KNYC, located 0 kilometers away from New York - Central Park, New York







STORIES FROM OUR PARTNERS